アトラス-アフリカーノ彗星

C/2019 F1 ( ATLAS-Africano )

English version
Home page
Updated on October 6, 2021

---------------------------------------------------------------------

・ プロフィール

発見日 2019年3月28日、29日
発見光度 18.3等、18.4等
発見者 Asteroid Terrestrial-Impact Last Alert System (ATLAS) search program, B. M. Africano (Mount Lemmon Survey)

・ 写真集

・ 軌道要素

Epoch 2021 July 5.0 TT = JDT 2459400.5
T 2021 June 22.86592 TT                                 Rudenko
q   3.5956960            (2000.0)            P               Q
z  -0.0010294      Peri.  251.13207     +0.09418753     +0.85665511
 +/-0.0000006      Node    38.72432     -0.27686906     +0.51192418
e   1.0037015      Incl.   54.17469     -0.95628041     -0.06384083
From 1302 observations 2019 Feb. 8-2021 May 13, mean residual 0".4.

・ 星図

・ 光度変化

        m1 = 8.0 + 5 logΔ + 7.0 log r(t + 150)

---------------------------------------------------------------------

軌道要素はM.P.E.C. 2021-L04に掲載されたものです。
星図はステラナビゲータ Ver.10 (アストロアーツ) で作成したものです。
光度グラフはComet for Windowsで作成したものです。

---------------------------------------------------------------------

Copyright(C) Seiichi Yoshida (comet@aerith.net). All rights reserved.